RH
44 42 42 34 27 16 14 8 9 8 7 8 7 5 5 5 3 4 8 21 22 14 19 20 19 20 35 40 32 32 44 48 35 29 23 16 17 13 12 20 20 20 26 18 36
54 40 32 36 23 17 13 12 9 10 8 9 12 8 5 6 4 2 19 20 19 19 14 15 20 18 40 39 41 41 47 43 27 22 20 16 16 15 12 18 19 26 24 29 40
62 29 22 14 12 13 14 14 13 13 16 16 20 13 6 8 6 13 16 26 28 20 23 28 12 24 36 37 36 32 41 27 21 19 17 17 16 15 13 15 15 34 42 47 46
61 42 26 19 19 10 14 16 12 14 22 21 30 23 10 10 7 29 24 23 27 23 34 41 39 30 25 46 36 40 29 26 23 20 19 18 15 14 12 12 14 17 26 36 39
85 62 37 25 11 10 10 12 11 12 17 24 45 38 24 35 8 11 24 24 26 26 23 40 37 27 29 29 31 39 33 28 24 20 18 16 16 16 13 11 16 25 34 35 37
86 70 50 31 12 9 10 9 9 9 13 29 58 53 46 76 6 19 23 25 28 27 23 18 32 20 27 33 35 26 28 27 23 19 17 16 15 14 12 11 22 29 37 40 40
63 61 47 36 13 9 8 8 7 17 56 46 58 66 75 17 7 13 21 23 24 28 30 22 22 18 19 33 29 26 30 24 22 18 18 14 16 16 12 11 12 25 33 39 42
73 60 38 29 19 9 7 6 18 47 54 39 50 69 54 16 33 25 24 19 23 25 26 25 24 23 17 27 28 32 29 35 22 17 16 16 22 15 12 12 11 14 24 36 40
81 76 60 27 12 10 8 16 14 38 41 48 57 70 72 37 32 29 32 29 21 25 23 25 27 24 18 34 43 39 48 36 27 18 18 18 22 16 13 12 12 11 22 34 40
72 70 56 22 10 11 34 34 31 65 67 72 91 95 52 33 36 32 29 38 31 28 36 39 34 26 30 43 60 52 44 33 30 21 22 25 23 18 14 14 14 12 16 31 39
84 77 62 24 11 39 63 57 69 56 55 56 70 70 40 39 42 32 27 42 35 47 60 43 49 54 32 31 36 35 37 41 33 28 29 28 26 26 20 15 18 18 22 36 39
81 78 71 29 12 51 74 86 86 91 78 60 51 50 52 47 55 26 34 38 54 68 68 69 68 45 32 26 27 35 39 43 33 25 27 27 29 20 18 17 17 22 25 37 45
77 80 74 41 13 55 69 83 82 79 80 64 52 54 42 39 51 36 36 44 56 75 79 77 62 48 41 40 35 30 31 39 38 29 24 30 30 22 18 15 14 16 18 23 40
72 76 77 47 32 52 70 76 71 69 96 60 51 40 35 35 44 33 33 36 53 64 79 83 64 66 65 55 43 59 23 22 27 31 52 29 50 27 22 21 18 16 17 23 40
77 71 82 70 45 56 73 65 59 79 68 33 33 29 33 34 28 27 31 28 38 63 68 66 71 76 74 58 43 46 44 49 46 49 46 36 42 28 24 24 21 20 16 18 27
72 80 80 71 58 58 80 60 68 89 73 37 32 34 42 34 32 26 27 26 25 40 63 56 62 62 60 51 48 53 52 50 42 47 67 43 42 43 31 22 19 18 15 16 37
75 75 80 67 55 48 71 71 87 97 30 30 34 34 39 42 39 36 35 36 41 40 44 37 54 58 59 68 54 57 70 69 68 69 73 39 43 38 28 24 22 22 18 16 35
87 76 70 57 52 62 83 90 98 48 46 29 32 25 27 22 30 41 43 41 36 30 45 47 58 43 57 64 67 61 76 84 91 92 66 34 45 35 23 19 18 17 16 20 44
85 78 70 42 70 83 92 100 66 48 37 44 40 28 24 21 24 38 48 50 40 33 44 49 52 36 45 43 52 76 94 63 85 66 91 60 43 31 31 23 19 19 26 34 48
85 85 42 48 72 88 91 76 62 41 40 42 53 39 44 39 37 32 42 54 66 54 34 40 57 36 36 36 40 50 61 98 98 97 94 57 48 52 40 38 29 32 35 44 47
84 92 39 58 68 97 93 78 54 39 37 46 57 53 43 44 39 39 54 63 50 61 49 60 53 48 40 44 59 60 96 92 82 82 96 77 72 64 51 37 38 43 46 48 44
92 97 52 95 89 92 90 67 52 47 43 45 48 51 47 40 43 41 41 48 34 41 59 52 71 87 53 32 30 53 74 75 99 86 81 86 95 74 55 42 32 43 49 52 54
98 85 49 62 98 94 76 68 60 57 53 46 50 44 44 47 44 42 42 43 33 45 52 42 68 88 60 43 35 50 50 64 75 89 98 98 84 77 60 63 58 40 50 54 58
98 98 65 81 75 90 97 86 72 54 55 51 52 48 46 47 44 43 38 42 35 41 40 45 68 80 89 89 80 84 67 63 86 100 88 90 72 82 85 81 57 47 52 56 60
98 94 84 96 94 96 85 82 80 79 68 63 55 50 47 51 52 53 47 52 49 52 62 65 70 82 76 69 59 58 85 79 74 80 85 69 68 70 89 80 71 62 54 56 59
97 89 89 94 70 70 81 86 81 84 60 65 81 82 77 66 46 58 64 55 73 64 67 78 78 84 85 59 50 61 72 75 94 87 61 62 69 70 93 93 72 60 56 62 67
99 97 89 80 83 79 78 65 76 53 76 62 77 90 86 73 74 68 62 59 59 62 73 76 82 87 86 67 62 79 59 58 61 75 80 94 67 79 84 86 71 54 63 68 70
Wind_Speed
12 13 15 16 17 16 17 17 17 19 19 20 21 22 22 27 28 24 27 21 14 8 11 12 13 10 8 13 20 10 1 5 6 7 14 18 10 28 10 13 10 14 17 12 24
13 14 16 18 18 17 18 17 18 19 20 21 22 22 23 27 28 24 8 6 8 4 8 15 19 14 9 11 8 6 7 9 8 9 13 18 12 24 16 7 5 9 8 18 26
15 15 16 17 19 19 19 19 20 21 22 22 24 24 22 25 25 3 7 7 11 8 10 13 18 13 14 17 11 7 13 9 11 25 20 20 23 28 14 5 11 15 24 30 26
15 16 17 18 20 19 21 21 21 21 22 23 24 25 22 20 5 5 5 10 5 7 10 10 11 8 6 9 25 7 14 16 21 28 23 17 31 15 20 17 8 16 23 26 23
16 18 18 20 20 21 22 22 22 21 21 21 21 24 22 9 19 12 17 10 8 7 13 10 9 7 5 6 12 12 15 23 28 29 30 32 23 23 24 26 3 21 28 27 24
14 19 21 22 21 22 22 22 22 20 20 18 18 21 15 6 6 2 10 8 7 11 14 8 4 4 11 8 9 11 17 23 27 29 24 13 18 8 26 21 17 23 29 28 24
17 19 21 22 21 21 22 22 21 19 20 15 17 18 18 25 8 11 11 11 10 10 13 6 4 5 7 5 5 7 9 13 15 12 11 17 16 10 29 23 19 26 28 28 26
18 21 23 24 22 20 22 21 19 16 19 17 14 14 12 9 5 4 3 12 13 12 14 12 8 11 6 6 8 4 3 6 7 6 13 9 17 19 28 21 25 21 26 29 32
20 22 25 25 21 20 20 20 19 18 17 11 10 7 13 5 5 4 5 6 7 13 13 12 7 5 6 1 3 3 5 6 8 8 7 6 13 10 25 21 25 28 27 33 34
21 24 27 25 18 17 17 18 12 3 5 1 3 5 13 4 2 8 6 7 6 6 6 6 2 1 3 4 8 5 4 5 9 1 7 12 17 16 27 22 25 30 25 37 37
21 25 27 22 14 11 17 14 13 4 23 13 8 13 8 10 17 19 11 8 6 2 3 1 3 11 10 7 6 7 9 9 13 8 9 15 18 10 16 16 15 19 23 37 44
22 23 27 20 11 4 12 14 16 15 18 27 35 36 40 35 18 27 9 10 6 4 2 1 9 9 9 9 10 9 9 14 16 10 6 16 10 14 14 13 22 26 27 35 33
21 22 26 21 7 3 7 13 13 16 6 20 12 12 11 19 15 21 13 15 4 5 5 5 3 6 12 12 11 8 10 12 14 15 13 11 9 15 11 7 14 27 35 33 42
20 20 22 22 5 6 2 11 8 14 4 8 6 6 10 8 6 22 16 15 5 9 6 5 3 7 8 10 7 9 12 16 19 11 5 3 6 19 12 9 5 10 22 27 39
17 17 20 16 14 7 10 12 8 6 5 3 4 5 11 10 6 5 15 15 6 5 5 4 2 5 9 14 10 12 7 5 5 5 3 6 6 13 6 8 11 8 18 32 42
16 15 16 16 13 10 12 9 4 1 7 4 7 7 5 7 2 8 9 7 5 5 4 7 5 4 8 11 8 10 7 5 5 4 4 9 6 8 5 11 5 7 9 23 38
15 15 15 19 17 9 9 6 2 4 7 2 5 6 10 7 5 7 7 7 6 3 5 3 14 6 4 4 9 8 2 1 3 3 5 5 7 13 13 11 11 11 23 21 43
16 16 18 21 17 7 2 1 6 5 8 12 10 9 7 4 6 10 8 5 5 3 2 4 6 11 9 8 9 11 6 4 5 1 2 12 6 5 10 13 20 25 26 22 36
17 19 23 17 6 5 3 3 6 5 5 12 15 4 3 4 6 6 10 6 7 10 7 2 4 2 11 7 9 5 6 3 3 2 1 4 5 7 11 12 8 10 6 28 33
17 19 23 2 13 8 5 7 5 5 8 7 4 8 9 8 8 6 8 1 4 2 4 3 4 5 6 7 5 7 4 3 3 3 4 4 2 2 16 13 10 8 7 11 30
13 8 10 0 15 9 8 6 7 14 12 5 4 7 7 5 8 7 2 2 3 4 6 3 3 6 4 8 11 4 4 3 1 2 1 1 2 11 13 15 15 17 26 25 16
5 2 4 2 8 4 9 4 9 15 14 7 7 8 8 5 3 5 3 3 5 5 3 1 1 4 6 9 4 8 8 7 2 5 4 2 3 9 9 13 13 18 24 29 37
4 9 20 16 2 6 6 11 15 14 14 5 5 2 9 6 4 3 4 1 2 3 4 2 2 3 6 3 3 4 9 13 5 2 5 2 2 1 12 14 22 14 19 27 32
4 2 5 6 15 5 4 8 11 12 13 14 12 14 11 5 4 5 6 1 2 3 7 4 1 2 3 3 3 6 6 8 9 3 2 5 3 7 5 14 12 12 17 24 30
7 5 3 2 3 4 8 5 12 12 4 13 5 12 11 5 6 6 2 5 6 4 4 3 1 2 7 12 12 12 8 12 16 12 6 4 11 5 6 5 11 18 19 22 24
6 3 2 6 11 7 7 3 8 9 9 13 6 15 7 4 4 8 4 1 2 5 3 4 1 3 3 5 8 7 13 12 13 16 14 13 10 3 10 3 7 9 20 21 25
9 10 4 5 3 5 5 5 12 12 10 10 14 12 8 6 3 7 4 6 4 3 2 2 1 2 3 7 9 5 3 10 8 7 11 5 4 9 5 6 6 6 18 25 26
Wind_Direction
324 324 324 323 320 319 319 315 315 312 312 316 319 316 314 306 302 301 302 302 272 250 258 265 261 268 246 217 209 204 167 218 221 229 245 301 337 311 276 156 179 185 167 202 182
325 323 324 325 319 317 315 316 313 314 314 316 321 316 313 309 311 312 325 66 69 355 301 271 259 250 214 230 208 183 217 216 205 235 268 292 290 293 313 196 202 166 185 170 174
322 319 317 314 315 317 317 317 319 318 319 322 323 318 315 312 324 178 113 18 16 335 306 273 252 233 220 227 200 221 237 232 254 252 269 272 284 288 275 244 233 184 159 163 173
319 322 318 316 317 314 318 321 319 318 318 323 322 317 314 312 297 176 215 326 302 292 305 284 237 200 200 207 231 254 256 238 257 265 268 263 273 280 276 265 295 221 189 169 181
314 318 317 317 315 316 316 318 317 315 317 321 318 317 317 297 264 234 234 291 252 257 281 254 221 208 207 204 232 243 249 260 261 259 259 266 265 259 269 267 219 176 175 179 188
310 318 322 320 316 316 317 315 315 314 315 316 312 316 311 290 309 140 214 248 246 270 269 275 272 308 270 248 220 252 238 247 255 256 256 256 271 243 263 253 170 179 182 186 188
312 312 320 322 318 318 315 316 315 314 308 299 294 310 293 267 284 276 261 256 232 245 260 258 327 341 305 309 298 260 260 273 258 262 253 266 277 257 267 248 217 193 184 188 190
324 319 317 318 323 320 317 318 312 312 300 286 284 297 263 309 297 308 243 239 238 247 254 267 292 309 228 280 322 264 213 246 262 240 267 211 264 271 266 251 241 217 207 186 184
321 322 321 321 328 323 323 319 316 304 285 285 270 268 267 226 254 2 324 295 256 249 253 269 264 286 298 198 322 247 249 265 287 244 256 199 273 276 270 249 238 239 211 196 190
320 321 323 327 334 330 340 331 335 349 10 295 221 277 260 176 158 315 311 274 261 253 254 234 183 200 313 148 223 222 258 253 250 295 338 310 293 272 263 249 236 236 223 207 197
321 325 325 332 337 345 3 14 16 301 309 254 234 227 258 242 270 293 278 231 194 175 172 241 145 220 217 232 216 262 267 278 286 291 322 285 281 268 278 239 239 233 215 197 201
318 325 327 334 334 350 16 40 16 320 297 285 267 258 254 257 288 276 269 203 168 174 143 330 244 239 234 256 253 244 261 273 286 292 262 288 280 287 282 254 219 205 199 196 192
314 322 327 338 323 269 349 8 357 356 286 297 254 232 241 206 225 267 222 199 163 170 191 202 243 266 230 244 253 256 254 262 267 295 288 295 296 293 281 248 216 219 223 207 192
313 316 325 342 316 305 294 323 332 337 291 274 221 236 179 178 226 238 215 193 218 198 181 235 265 231 257 237 214 264 251 260 262 263 271 35 290 285 279 287 298 237 227 207 193
315 314 322 345 309 323 310 306 322 338 329 196 170 189 175 175 155 215 186 201 207 182 139 244 218 173 227 243 243 255 319 313 340 320 291 276 259 274 249 284 274 265 253 219 201
314 309 312 324 293 295 319 321 330 70 251 272 147 181 147 220 218 138 170 190 207 177 233 237 212 208 221 259 266 301 324 264 218 178 242 244 223 273 237 242 267 260 269 225 193
307 301 297 306 300 292 291 337 77 217 316 209 206 178 203 204 192 170 174 180 182 152 254 278 237 193 175 222 247 241 312 253 255 209 227 227 225 239 266 256 245 265 282 256 194
296 295 300 299 298 277 341 12 216 251 270 343 345 286 201 207 205 174 143 196 244 142 357 196 307 192 173 204 191 217 193 165 200 266 302 209 236 248 239 254 248 258 277 207 178
296 297 300 305 216 204 187 209 218 211 351 344 323 273 282 293 210 161 190 196 197 174 187 253 266 97 169 181 180 200 199 268 6 225 260 268 299 312 337 268 262 266 160 167 172
303 314 314 339 195 214 210 242 239 258 7 353 310 335 354 334 338 183 180 342 132 103 204 279 290 249 201 172 211 186 122 145 178 210 206 248 284 325 350 356 42 34 72 145 176
300 324 318 16 196 201 221 233 285 272 298 318 311 292 317 351 339 328 66 120 107 358 4 24 184 287 0 194 195 235 159 160 235 219 244 288 134 1 9 17 57 68 68 71 122
294 281 227 34 180 219 225 221 260 282 290 279 281 267 278 331 310 310 27 116 149 133 162 227 250 263 241 252 180 161 185 174 182 179 207 275 272 321 339 27 35 56 62 67 72
249 264 290 269 250 229 257 253 249 271 273 261 277 342 314 312 305 298 3 335 137 93 145 286 323 320 319 302 124 160 204 204 181 59 221 177 180 28 353 3 8 47 69 74 76
248 290 294 214 227 276 302 265 254 278 262 249 262 285 290 315 324 288 294 219 291 142 163 109 196 270 273 339 285 293 156 220 192 188 199 226 196 127 68 358 351 80 72 85 86
208 234 243 304 342 322 271 255 292 297 300 327 293 239 260 263 311 301 224 356 28 78 66 85 190 23 291 280 279 293 223 259 232 223 208 239 231 162 135 118 302 321 93 85 82
202 221 328 309 292 274 250 268 298 326 283 292 298 316 327 287 249 288 324 88 83 1 68 359 277 17 285 351 326 287 239 218 246 237 229 244 248 72 101 191 263 326 98 81 66
226 239 293 260 327 330 302 339 329 325 288 301 273 272 291 292 350 273 245 271 164 129 105 124 280 37 279 330 303 285 208 244 200 229 229 254 224 121 120 166 280 109 92 88 80